Time,TemperatureF,DewpointF,PressureIn,WindDirection,WindDirectionDegrees,WindSpeedMPH,WindSpeedGustMPH,Humidity,HourlyPrecipIn,Conditions,Clouds,dailyrainin,SoftwareType,DateUTC
2013-01-15 00:02:00,25.0,13.0,30.41,ESE,108,0.0,1.0,60,0.00,,,0.00,,2013-01-15 06:02:00,
2013-01-15 00:12:00,25.0,13.0,30.41,ESE,108,0.0,1.0,60,0.00,,,0.00,,2013-01-15 06:12:00,
2013-01-15 00:22:00,25.0,13.0,30.41,East,92,0.0,1.0,61,0.00,,,0.00,,2013-01-15 06:22:00,
2013-01-15 00:33:00,25.0,14.0,30.41,ENE,65,0.0,2.0,63,0.00,,,0.00,,2013-01-15 06:33:00,
2013-01-15 00:42:00,25.0,14.0,30.41,ENE,65,0.0,2.0,63,0.00,,,0.00,,2013-01-15 06:42:00,
2013-01-15 00:53:00,24.0,14.0,30.40,ENE,65,0.0,0.0,66,0.00,,,0.00,,2013-01-15 06:53:00,
2013-01-15 01:02:00,23.0,15.0,30.39,ENE,65,0.0,0.0,70,0.00,,,0.00,,2013-01-15 07:02:00,
2013-01-15 01:12:00,23.0,15.0,30.39,ENE,65,0.0,0.0,70,0.00,,,0.00,,2013-01-15 07:12:00,
2013-01-15 01:22:00,23.0,16.0,30.39,ENE,68,0.0,1.0,73,0.00,,,0.00,,2013-01-15 07:22:00,
2013-01-15 01:32:00,22.0,15.0,30.38,ENE,68,0.0,1.0,74,0.00,,,0.00,,2013-01-15 07:32:00,
2013-01-15 01:42:00,22.0,15.0,30.38,ENE,68,0.0,1.0,74,0.00,,,0.00,,2013-01-15 07:42:00,
2013-01-15 01:52:00,22.0,15.0,30.38,ENE,68,0.0,0.0,74,0.00,,,0.00,,2013-01-15 07:52:00,
2013-01-15 02:02:00,22.0,15.0,30.38,ENE,68,0.0,0.0,74,0.00,,,0.00,,2013-01-15 08:02:00,
2013-01-15 02:12:00,22.0,15.0,30.38,ENE,68,0.0,0.0,74,0.00,,,0.00,,2013-01-15 08:12:00,
2013-01-15 02:22:00,22.0,15.0,30.38,ENE,72,0.0,1.0,74,0.00,,,0.00,,2013-01-15 08:22:00,
2013-01-15 02:32:00,22.0,14.0,30.38,SE,135,0.0,1.0,70,0.00,,,0.00,,2013-01-15 08:32:00,
2013-01-15 02:42:00,22.0,14.0,30.38,SE,135,0.0,1.0,70,0.00,,,0.00,,2013-01-15 08:42:00,
2013-01-15 02:53:00,22.0,14.0,30.37,SE,141,0.0,1.0,70,0.00,,,0.00,,2013-01-15 08:53:00,
2013-01-15 03:02:00,22.0,13.0,30.37,SE,141,0.0,1.0,69,0.00,,,0.00,,2013-01-15 09:02:00,
2013-01-15 03:12:00,22.0,13.0,30.37,SE,141,0.0,1.0,69,0.00,,,0.00,,2013-01-15 09:12:00,
2013-01-15 03:22:00,21.0,13.0,30.37,SW,215,0.0,1.0,70,0.00,,,0.00,,2013-01-15 09:22:00,
2013-01-15 03:33:00,21.0,13.0,30.37,SW,215,0.0,1.0,72,0.00,,,0.00,,2013-01-15 09:33:00,
2013-01-15 03:42:00,21.0,13.0,30.37,SW,215,0.0,1.0,72,0.00,,,0.00,,2013-01-15 09:42:00,
2013-01-15 03:52:00,20.0,13.0,30.37,SW,215,0.0,0.0,75,0.00,,,0.00,,2013-01-15 09:52:00,
2013-01-15 04:02:00,19.0,13.0,30.36,SW,215,0.0,0.0,78,0.00,,,0.00,,2013-01-15 10:02:00,
2013-01-15 04:12:00,19.0,13.0,30.36,SW,215,0.0,0.0,78,0.00,,,0.00,,2013-01-15 10:12:00,
2013-01-15 04:22:00,19.0,14.0,30.35,SW,215,0.0,0.0,80,0.00,,,0.00,,2013-01-15 10:22:00,
2013-01-15 04:32:00,19.0,14.0,30.36,SSE,167,0.0,1.0,80,0.00,,,0.00,,2013-01-15 10:32:00,
2013-01-15 04:42:00,19.0,14.0,30.36,SSE,167,0.0,1.0,80,0.00,,,0.00,,2013-01-15 10:42:00,
2013-01-15 04:52:00,19.0,14.0,30.36,SSE,167,0.0,0.0,80,0.00,,,0.00,,2013-01-15 10:52:00,
2013-01-15 05:02:00,19.0,14.0,30.36,SSE,167,0.0,0.0,80,0.00,,,0.00,,2013-01-15 11:02:00,
2013-01-15 05:12:00,19.0,14.0,30.36,SSE,167,0.0,0.0,80,0.00,,,0.00,,2013-01-15 11:12:00,
2013-01-15 05:22:00,19.0,14.0,30.36,SSE,167,0.0,0.0,80,0.00,,,0.00,,2013-01-15 11:22:00,
2013-01-15 05:33:00,19.0,14.0,30.36,SSE,167,0.0,0.0,80,0.00,,,0.00,,2013-01-15 11:33:00,
2013-01-15 05:42:00,19.0,14.0,30.36,SSE,167,0.0,0.0,80,0.00,,,0.00,,2013-01-15 11:42:00,
2013-01-15 05:53:00,19.0,14.0,30.36,SSE,167,0.0,0.0,80,0.00,,,0.00,,2013-01-15 11:53:00,
2013-01-15 06:03:00,19.0,14.0,30.36,SSE,167,0.0,0.0,80,0.00,,,0.00,,2013-01-15 12:03:00,
2013-01-15 06:12:00,19.0,14.0,30.36,SSE,167,0.0,0.0,80,0.00,,,0.00,,2013-01-15 12:12:00,
2013-01-15 06:22:00,19.0,14.0,30.36,SSE,167,0.0,0.0,80,0.00,,,0.00,,2013-01-15 12:22:00,
2013-01-15 06:33:00,19.0,14.0,30.36,SSE,167,0.0,0.0,80,0.00,,,0.00,,2013-01-15 12:33:00,
2013-01-15 06:42:00,19.0,14.0,30.36,SSE,167,0.0,0.0,80,0.00,,,0.00,,2013-01-15 12:42:00,
2013-01-15 06:53:00,19.0,14.0,30.36,SSE,167,0.0,0.0,80,0.00,,,0.00,,2013-01-15 12:53:00,
2013-01-15 07:03:00,19.0,14.0,30.36,SSE,167,0.0,0.0,80,0.00,,,0.00,,2013-01-15 13:03:00,
2013-01-15 07:12:00,19.0,14.0,30.36,SSE,167,0.0,0.0,80,0.00,,,0.00,,2013-01-15 13:12:00,
2013-01-15 07:23:00,19.0,14.0,30.36,SSE,167,0.0,0.0,80,0.00,,,0.00,,2013-01-15 13:23:00,
2013-01-15 07:33:00,19.0,14.0,30.36,SSE,167,0.0,0.0,80,0.00,,,0.00,,2013-01-15 13:33:00,
2013-01-15 07:43:00,19.0,14.0,30.36,SSE,167,0.0,0.0,80,0.00,,,0.00,,2013-01-15 13:43:00,
2013-01-15 07:53:00,19.0,14.0,30.36,SSE,167,0.0,0.0,80,0.00,,,0.00,,2013-01-15 13:53:00,
2013-01-15 08:02:00,19.0,14.0,30.35,SSE,167,0.0,0.0,80,0.00,,,0.00,,2013-01-15 14:02:00,
2013-01-15 08:12:00,19.0,14.0,30.35,SSE,167,0.0,0.0,80,0.00,,,0.00,,2013-01-15 14:12:00,
2013-01-15 08:23:00,19.0,14.0,30.35,SSE,167,0.0,0.0,80,0.00,,,0.00,,2013-01-15 14:23:00,
2013-01-15 08:33:00,19.0,14.0,30.35,SSE,167,0.0,0.0,80,0.00,,,0.00,,2013-01-15 14:33:00,
2013-01-15 08:43:00,19.0,14.0,30.35,SSE,167,0.0,0.0,80,0.00,,,0.00,,2013-01-15 14:43:00,
2013-01-15 08:53:00,21.0,16.0,30.35,SW,224,0.0,0.0,80,0.00,,,0.00,,2013-01-15 14:53:00,
2013-01-15 09:03:00,20.0,15.0,30.36,WNW,302,0.0,1.0,80,0.00,,,0.00,,2013-01-15 15:03:00,
2013-01-15 09:12:00,20.0,15.0,30.36,WNW,302,0.0,1.0,80,0.00,,,0.00,,2013-01-15 15:12:00,
2013-01-15 09:23:00,21.0,16.0,30.36,WNW,298,0.0,1.0,80,0.00,,,0.00,,2013-01-15 15:23:00,
2013-01-15 09:33:00,23.0,16.0,30.36,WSW,248,0.0,0.0,75,0.00,,,0.00,,2013-01-15 15:33:00,
2013-01-15 09:43:00,23.0,16.0,30.36,WSW,248,0.0,0.0,75,0.00,,,0.00,,2013-01-15 15:43:00,
2013-01-15 09:53:00,24.0,16.0,30.36,SSW,208,0.0,1.0,71,0.00,,,0.00,,2013-01-15 15:53:00,
2013-01-15 10:02:00,25.0,16.0,30.36,West,280,0.0,1.0,69,0.00,,,0.00,,2013-01-15 16:02:00,
2013-01-15 10:12:00,25.0,16.0,30.36,West,280,0.0,1.0,69,0.00,,,0.00,,2013-01-15 16:12:00,
2013-01-15 10:22:00,25.0,17.0,30.36,SSW,208,0.0,1.0,70,0.00,,,0.00,,2013-01-15 16:22:00,
2013-01-15 10:33:00,26.0,17.0,30.36,WSW,245,0.0,4.0,68,0.00,,,0.00,,2013-01-15 16:33:00,
2013-01-15 10:42:00,26.0,17.0,30.36,WSW,245,0.0,4.0,68,0.00,,,0.00,,2013-01-15 16:42:00,
2013-01-15 10:53:00,27.0,18.0,30.36,WSW,245,0.0,1.0,68,0.00,,,0.00,,2013-01-15 16:53:00,
2013-01-15 11:03:00,29.0,19.0,30.36,SW,221,0.0,1.0,65,0.00,,,0.00,,2013-01-15 17:03:00,
2013-01-15 11:12:00,29.0,19.0,30.36,SW,221,0.0,1.0,65,0.00,,,0.00,,2013-01-15 17:12:00,
2013-01-15 11:22:00,29.0,19.0,30.35,NW,314,0.0,1.0,65,0.00,,,0.00,,2013-01-15 17:22:00,
2013-01-15 11:33:00,29.0,18.0,30.35,SW,224,1.0,3.0,64,0.00,,,0.00,,2013-01-15 17:33:00,
2013-01-15 11:42:00,29.0,18.0,30.35,SW,224,1.0,3.0,64,0.00,,,0.00,,2013-01-15 17:42:00,
2013-01-15 11:53:00,30.0,17.0,30.34,SW,229,0.0,1.0,59,0.00,,,0.00,,2013-01-15 17:53:00,
2013-01-15 12:03:00,31.0,17.0,30.34,West,263,0.0,1.0,55,0.00,,,0.00,,2013-01-15 18:03:00,
2013-01-15 12:12:00,31.0,17.0,30.34,West,263,0.0,1.0,55,0.00,,,0.00,,2013-01-15 18:12:00,
2013-01-15 12:23:00,33.0,17.0,30.33,WNW,293,0.0,1.0,52,0.00,,,0.00,,2013-01-15 18:23:00,
2013-01-15 12:33:00,33.0,17.0,30.32,NW,306,4.0,4.0,51,0.00,,,0.00,,2013-01-15 18:33:00,
2013-01-15 12:42:00,33.0,17.0,30.32,NW,306,4.0,4.0,51,0.00,,,0.00,,2013-01-15 18:42:00,
2013-01-15 12:53:00,34.0,17.0,30.32,ESE,123,0.0,5.0,50,0.00,,,0.00,,2013-01-15 18:53:00,
2013-01-15 13:03:00,34.0,17.0,30.31,WSW,242,0.0,1.0,50,0.00,,,0.00,,2013-01-15 19:03:00,
2013-01-15 13:12:00,34.0,17.0,30.31,WSW,242,0.0,1.0,50,0.00,,,0.00,,2013-01-15 19:12:00,
2013-01-15 13:23:00,34.0,19.0,30.31,South,190,0.0,1.0,53,0.00,,,0.00,,2013-01-15 19:23:00,
2013-01-15 13:33:00,34.0,19.0,30.30,SW,228,4.0,6.0,54,0.00,,,0.00,,2013-01-15 19:33:00,
2013-01-15 13:42:00,34.0,19.0,30.30,SW,228,4.0,6.0,54,0.00,,,0.00,,2013-01-15 19:42:00,
2013-01-15 13:53:00,35.0,20.0,30.29,South,177,5.0,8.0,55,0.00,,,0.00,,2013-01-15 19:53:00,
2013-01-15 14:03:00,35.0,20.0,30.28,SSW,207,0.0,7.0,53,0.00,,,0.00,,2013-01-15 20:03:00,
2013-01-15 14:12:00,35.0,20.0,30.28,SSW,207,0.0,7.0,53,0.00,,,0.00,,2013-01-15 20:12:00,
2013-01-15 14:23:00,35.0,20.0,30.28,NW,308,0.0,5.0,55,0.00,,,0.00,,2013-01-15 20:23:00,
2013-01-15 14:33:00,36.0,21.0,30.27,NW,325,3.0,7.0,53,0.00,,,0.00,,2013-01-15 20:33:00,
2013-01-15 14:43:00,36.0,21.0,30.27,NW,325,3.0,7.0,53,0.00,,,0.00,,2013-01-15 20:43:00,
2013-01-15 14:53:00,36.0,21.0,30.27,WSW,255,0.0,7.0,53,0.00,,,0.00,,2013-01-15 20:53:00,
2013-01-15 15:03:00,36.0,21.0,30.27,SW,215,1.0,7.0,54,0.00,,,0.00,,2013-01-15 21:03:00,
2013-01-15 15:12:00,36.0,21.0,30.27,SW,215,1.0,7.0,54,0.00,,,0.00,,2013-01-15 21:12:00,
2013-01-15 15:23:00,36.0,21.0,30.27,SW,229,0.0,3.0,53,0.00,,,0.00,,2013-01-15 21:23:00,
2013-01-15 15:33:00,36.0,20.0,30.27,West,270,0.0,6.0,52,0.00,,,0.00,,2013-01-15 21:33:00,
2013-01-15 15:43:00,36.0,20.0,30.27,West,270,0.0,6.0,52,0.00,,,0.00,,2013-01-15 21:43:00,
2013-01-15 15:53:00,36.0,21.0,30.27,WSW,253,0.0,4.0,53,0.00,,,0.00,,2013-01-15 21:53:00,
2013-01-15 16:03:00,37.0,21.0,30.27,WNW,283,0.0,5.0,53,0.00,,,0.00,,2013-01-15 22:03:00,
2013-01-15 16:12:00,37.0,21.0,30.27,WNW,283,0.0,5.0,53,0.00,,,0.00,,2013-01-15 22:12:00,
2013-01-15 16:23:00,37.0,21.0,30.27,WNW,303,0.0,3.0,52,0.00,,,0.00,,2013-01-15 22:23:00,
2013-01-15 16:33:00,37.0,21.0,30.26,SW,235,0.0,1.0,51,0.00,,,0.00,,2013-01-15 22:33:00,
2013-01-15 16:43:00,37.0,21.0,30.26,SW,235,0.0,1.0,51,0.00,,,0.00,,2013-01-15 22:43:00,
2013-01-15 16:53:00,37.0,21.0,30.26,NNW,342,0.0,1.0,52,0.00,,,0.00,,2013-01-15 22:53:00,
2013-01-15 17:02:00,37.0,21.0,30.26,WSW,255,0.0,1.0,52,0.00,,,0.00,,2013-01-15 23:02:00,
2013-01-15 17:12:00,37.0,21.0,30.26,WSW,255,0.0,1.0,52,0.00,,,0.00,,2013-01-15 23:12:00,
2013-01-15 17:22:00,37.0,21.0,30.26,SW,236,0.0,1.0,52,0.00,,,0.00,,2013-01-15 23:22:00,
2013-01-15 17:32:00,36.0,20.0,30.25,SW,233,0.0,1.0,52,0.00,,,0.00,,2013-01-15 23:32:00,
2013-01-15 17:42:00,36.0,20.0,30.25,SW,233,0.0,1.0,52,0.00,,,0.00,,2013-01-15 23:42:00,
2013-01-15 17:53:00,35.0,20.0,30.25,WSW,256,0.0,1.0,55,0.00,,,0.00,,2013-01-15 23:53:00,
2013-01-15 18:02:00,33.0,19.0,30.24,WSW,256,0.0,1.0,57,0.00,,,0.00,,2013-01-16 00:02:00,
2013-01-15 18:12:00,33.0,19.0,30.24,WSW,256,0.0,1.0,57,0.00,,,0.00,,2013-01-16 00:12:00,
2013-01-15 18:22:00,32.0,20.0,30.24,WSW,256,0.0,1.0,60,0.00,,,0.00,,2013-01-16 00:22:00,
2013-01-15 18:32:00,32.0,20.0,30.23,SE,141,0.0,1.0,61,0.00,,,0.00,,2013-01-16 00:32:00,
2013-01-15 18:43:00,32.0,20.0,30.23,SE,141,0.0,1.0,61,0.00,,,0.00,,2013-01-16 00:43:00,
2013-01-15 18:53:00,32.0,20.0,30.23,SSE,160,0.0,1.0,61,0.00,,,0.00,,2013-01-16 00:53:00,
2013-01-15 19:02:00,31.0,20.0,30.23,South,173,0.0,0.0,63,0.00,,,0.00,,2013-01-16 01:02:00,
2013-01-15 19:12:00,31.0,20.0,30.23,South,173,0.0,0.0,63,0.00,,,0.00,,2013-01-16 01:12:00,
2013-01-15 19:22:00,31.0,20.0,30.24,SSE,163,0.0,0.0,63,0.00,,,0.00,,2013-01-16 01:22:00,
2013-01-15 19:33:00,31.0,20.0,30.24,SSE,163,0.0,1.0,64,0.00,,,0.00,,2013-01-16 01:33:00,
2013-01-15 19:42:00,31.0,20.0,30.24,SSE,163,0.0,1.0,64,0.00,,,0.00,,2013-01-16 01:42:00,
2013-01-15 19:53:00,30.0,19.0,30.23,SSW,193,1.0,3.0,64,0.00,,,0.00,,2013-01-16 01:53:00,
2013-01-15 20:02:00,30.0,19.0,30.24,SSE,168,0.0,1.0,64,0.00,,,0.00,,2013-01-16 02:02:00,
2013-01-15 20:12:00,30.0,19.0,30.24,SSE,168,0.0,1.0,64,0.00,,,0.00,,2013-01-16 02:12:00,
2013-01-15 20:22:00,30.0,19.0,30.24,SE,143,0.0,5.0,63,0.00,,,0.00,,2013-01-16 02:22:00,
2013-01-15 20:32:00,30.0,19.0,30.23,SSE,160,0.0,2.0,64,0.00,,,0.00,,2013-01-16 02:32:00,
2013-01-15 20:42:00,30.0,19.0,30.23,SSE,160,0.0,2.0,64,0.00,,,0.00,,2013-01-16 02:42:00,
2013-01-15 20:53:00,29.0,19.0,30.22,South,188,0.0,1.0,65,0.00,,,0.00,,2013-01-16 02:53:00,
2013-01-15 21:02:00,28.0,18.0,30.22,SE,138,0.0,1.0,66,0.00,,,0.00,,2013-01-16 03:02:00,
2013-01-15 21:12:00,28.0,18.0,30.22,SSE,160,0.0,1.0,67,0.00,,,0.00,,2013-01-16 03:12:00,
2013-01-15 21:22:00,28.0,18.0,30.22,SSE,160,0.0,1.0,67,0.00,,,0.00,,2013-01-16 03:22:00,
2013-01-15 21:32:00,27.0,18.0,30.21,SW,224,0.0,1.0,68,0.00,,,0.00,,2013-01-16 03:32:00,
2013-01-15 21:42:00,27.0,18.0,30.21,SW,224,0.0,1.0,68,0.00,,,0.00,,2013-01-16 03:42:00,
2013-01-15 21:53:00,27.0,18.0,30.21,SW,217,0.0,1.0,69,0.00,,,0.00,,2013-01-16 03:53:00,
2013-01-15 22:02:00,26.0,18.0,30.20,SW,218,0.0,1.0,70,0.00,,,0.00,,2013-01-16 04:02:00,
2013-01-15 22:12:00,26.0,18.0,30.20,SW,218,0.0,1.0,70,0.00,,,0.00,,2013-01-16 04:12:00,
2013-01-15 22:22:00,26.0,18.0,30.21,SSW,203,0.0,1.0,71,0.00,,,0.00,,2013-01-16 04:22:00,
2013-01-15 22:32:00,26.0,18.0,30.20,SSW,206,0.0,1.0,71,0.00,,,0.00,,2013-01-16 04:32:00,
2013-01-15 22:42:00,26.0,18.0,30.20,SSW,206,0.0,1.0,71,0.00,,,0.00,,2013-01-16 04:42:00,
2013-01-15 22:52:00,25.0,17.0,30.21,WSW,239,0.0,1.0,72,0.00,,,0.00,,2013-01-16 04:52:00,
2013-01-15 23:03:00,25.0,18.0,30.21,SW,224,0.0,1.0,74,0.00,,,0.00,,2013-01-16 05:03:00,
2013-01-15 23:12:00,25.0,18.0,30.21,SW,224,0.0,1.0,74,0.00,,,0.00,,2013-01-16 05:12:00,
2013-01-15 23:22:00,24.0,17.0,30.21,SSW,211,0.0,1.0,75,0.00,,,0.00,,2013-01-16 05:22:00,
2013-01-15 23:32:00,24.0,17.0,30.20,WSW,242,0.0,1.0,75,0.00,,,0.00,,2013-01-16 05:32:00,
2013-01-15 23:42:00,24.0,17.0,30.20,WSW,242,0.0,1.0,75,0.00,,,0.00,,2013-01-16 05:42:00,
2013-01-15 23:53:00,24.0,17.0,30.19,SW,226,0.0,1.0,74,0.00,,,0.00,,2013-01-16 05:53:00,